Weather History for KVRB - October, 2012

Change the Weather History Date:

Tuesday, October 23, 2012

  Actual Average Record
Temperature  
Mean Temperature 78 °F 75 °F  
Max Temperature 82 °F 83 °F 90 °F (1990)
Min Temperature 73 °F 67 °F 50 °F (1976)
Degree Days  
Heating Degree Days 0 0  
Month to date heating degree days 0 0  
Since 1 July heating degree days 0 0  
Cooling Degree Days 13 10  
Month to date cooling degree days 319 286  
Year to date cooling degree days 3304 3053  
Growing Degree Days 27 (Base 50)    
Moisture  
Dew Point 67 °F    
Average Humidity 73    
Maximum Humidity 87    
Minimum Humidity 58    
Precipitation  
Precipitation 0.30 in 0.13 in 1.20 in (1971)
Month to date precipitation 3.34 3.98  
Year to date precipitation 44.18 45.47  
Sea Level Pressure  
Sea Level Pressure 30.01 in    
Wind  
Wind Speed 13 mph (ENE)    
Max Wind Speed 21 mph    
Max Gust Speed 28 mph    
Visibility 9 miles    
Events Rain    
T = Trace of Precipitation, MM = Missing Value Source: NWS Daily Summary

Daily Weather History Graph

Daily Weather History Graph

Search for Another Location

Airport or City:

Trip Planner

Search our weather history database for the weather conditions in past years. The results will help you decide how hot, cold, wet, or windy it might be!

Date:

Astronomy

Oct. 23, 2012 Rise Set
Actual Time 7:26 AM EDT 6:44 PM EDT
Civil Twilight 7:03 AM EDT 7:08 PM EDT
Nautical Twilight 6:35 AM EDT 7:35 PM EDT
Astronomical Twilight 6:08 AM EDT 8:02 PM EDT
Moon 3:00 PM EDT (10/23) 1:47 AM EDT (10/23)
Length of Visible Light 12h 05m
Length of Day
11h 17m
Waxing Gibbous, 66% of the Moon is Illuminated
Oct 23
Waxing Gibbous
Oct 29
Full
Nov 6
Last Quarter
Nov 13
New
Nov 20
First Quarter

Hourly Weather History & Observations

Time (EDT) Temp. Heat Index Dew Point Humidity Pressure Visibility Wind Dir Wind Speed Gust Speed Precip Events Conditions
12:53 AM 75.9 °F - 62.1 °F 62% 30.04 in 10.0 mi ENE 11.5 mph - N/A   Clear
3:53 AM 75.0 °F - 66.9 °F 76% 29.99 in 10.0 mi ENE 12.7 mph - 0.00 in   Mostly Cloudy
4:53 AM 75.9 °F - 64.9 °F 69% 29.99 in 10.0 mi ENE 16.1 mph 23.0 mph N/A   Overcast
5:53 AM 75.9 °F - 64.9 °F 69% 29.99 in 10.0 mi ENE 13.8 mph - N/A   Partly Cloudy
6:53 AM 75.9 °F - 66.0 °F 71% 30.00 in 10.0 mi ENE 10.4 mph - N/A   Mostly Cloudy
7:53 AM 77.0 °F - 66.9 °F 71% 30.00 in 10.0 mi ENE 11.5 mph - N/A   Mostly Cloudy
8:53 AM 78.1 °F - 66.9 °F 68% 30.02 in 10.0 mi ENE 15.0 mph 21.9 mph 0.00 in   Mostly Cloudy
9:53 AM 75.9 °F - 69.1 °F 79% 30.03 in 10.0 mi ENE 12.7 mph 20.7 mph 0.00 in Rain Light Rain
10:38 AM 73.4 °F - 69.8 °F 88% 30.04 in 2.0 mi SE 11.5 mph - 0.08 in Rain Light Rain
11:53 AM 79.0 °F - 68.0 °F 69% 30.02 in 10.0 mi ENE 15.0 mph 25.3 mph 0.00 in   Overcast
1:53 PM 80.1 °F 82.3 °F 66.9 °F 64% 29.99 in 10.0 mi ENE 13.8 mph 20.7 mph N/A   Mostly Cloudy
2:53 PM 81.0 °F 83.3 °F 66.9 °F 62% 29.98 in 10.0 mi ENE 15.0 mph 26.5 mph N/A   Overcast
3:53 PM 80.1 °F 81.9 °F 64.9 °F 60% 29.97 in 10.0 mi ENE 13.8 mph 21.9 mph N/A   Overcast
4:53 PM 80.1 °F 82.3 °F 66.9 °F 64% 29.98 in 10.0 mi ENE 13.8 mph 20.7 mph N/A   Mostly Cloudy
5:53 PM 79.0 °F - 66.0 °F 64% 29.99 in 10.0 mi ENE 11.5 mph 20.7 mph N/A   Scattered Clouds
6:53 PM 77.0 °F - 64.9 °F 66% 29.99 in 10.0 mi ENE 8.1 mph - N/A   Clear
7:53 PM 77.0 °F - 66.0 °F 69% 30.00 in 10.0 mi ENE 10.4 mph - N/A   Partly Cloudy
8:53 PM 77.0 °F - 64.9 °F 66% 30.01 in 10.0 mi ENE 13.8 mph - N/A   Clear
9:53 PM 77.0 °F - 66.9 °F 71% 30.01 in 10.0 mi ENE 11.5 mph - N/A   Partly Cloudy
10:53 PM 77.0 °F - 69.1 °F 76% 30.03 in 4.0 mi East 20.7 mph 26.5 mph 0.00 in Rain Light Rain
11:00 PM 73.4 °F - 69.8 °F 88% 30.02 in 2.0 mi NE 11.5 mph 26.5 mph 0.13 in Rain Heavy Rain
11:09 PM 73.4 °F - 69.8 °F 88% 30.02 in 8.0 mi NE 5.8 mph - 0.13 in Rain Light Rain
11:53 PM 75.0 °F - 71.1 °F 87% 30.01 in 5.0 mi East 12.7 mph - 0.14 in Rain Light Rain